CST,Max TemperatureF,Mean TemperatureF,Min TemperatureF,Max Dew PointF,MeanDew PointF,Min DewpointF,Max Humidity, Mean Humidity, Min Humidity, Max Sea Level PressureIn, Mean Sea Level PressureIn, Min Sea Level PressureIn, Max VisibilityMiles, Mean VisibilityMiles, Min VisibilityMiles, Max Wind SpeedMPH, Mean Wind SpeedMPH, Max Gust SpeedMPH,PrecipitationIn, CloudCover, Events, WindDirDegrees
2013-12-1,53,45,37,41,35,28,87,66,54,30.20,30.07,29.92,10,9,2,7,4,,0.00,7,,180
2013-12-2,60,50,41,48,45,39,100,82,63,29.91,29.79,29.71,10,10,3,7,3,,0.00,6,,150
2013-12-3,64,53,42,54,50,43,100,90,59,29.76,29.72,29.69,10,7,0,10,5,,0.00,5,,145
2013-12-4,71,62,53,61,59,54,100,85,64,29.80,29.72,29.66,10,9,6,17,9,,0.00,5,,184
2013-12-5,64,47,30,63,39,28,100,87,70,30.17,30.01,29.79,10,9,2,18,10,,0.00,7,,352
2013-12-6,28,24,21,27,23,19,100,93,86,30.47,30.27,30.13,10,6,2,18,13,,0.00,8,,10
2013-12-7,24,20,17,19,16,12,93,84,74,30.62,30.51,30.36,10,10,10,16,13,,0.00,4,,24
2013-12-8,30,24,19,30,27,18,100,98,93,30.35,30.16,30.03,10,4,1,9,5,,0.00,8,,315
2013-12-9,30,27,24,28,25,19,100,89,74,30.30,30.22,30.13,10,9,4,13,6,,0.00,6,,353
2013-12-10,32,26,21,25,20,16,100,81,69,30.40,30.34,30.22,10,10,10,13,7,,0.00,2,,300
2013-12-11,37,27,17,30,23,16,100,86,70,30.61,30.46,30.37,10,10,7,17,4,,0.00,0,,326
2013-12-12,32,23,14,19,14,10,93,71,44,30.63,30.53,30.38,10,10,5,7,3,,0.00,0,,40
2013-12-13,39,28,17,34,23,16,100,77,52,30.37,30.19,29.96,10,10,4,12,3,,0.00,3,,140
2013-12-14,39,34,30,39,34,28,100,93,87,30.10,29.92,29.79,10,7,0,15,6,,0.00,8,,312
2013-12-15,32,29,26,28,26,25,100,89,80,30.25,30.19,30.11,10,10,8,17,10,,0.00,6,,258
2013-12-16,53,40,28,37,33,28,100,78,54,30.15,30.10,30.06,10,10,8,14,8,,0.00,0,,206
2013-12-17,46,36,26,36,31,27,100,82,53,30.31,30.19,30.09,10,10,6,12,5,,0.00,0,,284
2013-12-18,51,36,21,34,27,19,100,71,40,30.35,30.23,30.09,10,10,6,14,4,,0.00,0,,171
2013-12-19,60,50,39,48,42,34,87,73,55,30.12,30.03,29.93,10,10,10,20,10,29,0.00,3,,179
2013-12-20,64,60,55,61,56,48,100,86,72,29.94,29.89,29.80,10,9,1,18,13,,0.00,7,,177
2013-12-21,66,54,42,63,59,41,100,94,83,29.79,29.62,29.47,10,7,1,22,10,24,0.00,8,,203
2013-12-22,51,42,33,48,40,28,100,92,81,30.22,29.94,29.70,10,10,2,16,9,,0.00,8,,272
2013-12-23,33,30,26,28,25,21,93,81,69,30.50,30.41,30.22,10,10,10,15,10,,0.00,6,,339
2013-12-24,26,20,15,21,13,9,86,69,54,30.63,30.53,30.42,10,10,7,16,8,,0.00,1,,13
2013-12-25,41,29,17,28,21,12,93,72,52,30.42,30.35,30.29,10,10,10,9,5,,0.00,1,,193
2013-12-26,42,32,21,30,26,21,100,81,49,30.45,30.38,30.31,10,8,0,10,3,,0.00,0,,274
2013-12-27,50,34,19,34,27,19,100,78,47,30.46,30.39,30.33,10,9,2,7,1,,0.00,0,,191
2013-12-28,44,34,24,39,30,23,100,84,57,30.34,30.19,29.96,10,9,3,8,1,,0.00,3,,147
2013-12-29,48,37,26,41,35,21,100,88,71,30.20,30.02,29.93,10,8,2,17,6,,0.00,6,,300
2013-12-30,26,22,17,21,19,16,93,81,69,30.33,30.27,30.21,10,10,10,13,8,,0.00,3,,358
2013-12-31,41,29,17,27,22,16,100,81,56,30.44,30.36,30.29,10,10,10,10,2,,0.00,0,,182